CARTOSAT-2E

Last updated on Mon Sep 21 2026 00:02:46 GMT+0000 (Coordinated Universal Time)

1 42767U 17036C 26263.61251428 .00002846 00000+0 13803-3 0 9998 2 42767 97.4180 321.7868 0002933 6.3852 353.7419 15.19304418512638
UTC large
Height (km)
Speed (km/s)
/
Latitude / Longitude
Inclination (degrees)
Orbital Period (minutes)
Azimuth
Elevation
Range (km)
Doppler Factor

Next 0 passes for location: London (51.5072 / 0.1276)

No passes found over London.
CARTOSAT-2E